CAPE
1008 1538 1601 1441 1260 1268 1359 1366 1262 1074 912 841 773 671 633 743 865 955 985 983 941 969 962 1001 1025 1028 947 836 698 635 649 748 798 850 1310 1558 1504 939 602 661 816 866 1000
1372 1673 1510 1418 1347 1323 1359 1338 1258 1070 972 931 856 793 772 750 754 777 783 850 803 748 712 655 681 699 555 409 276 158 92 121 156 719 748 1391 1267 1178 1109 668 511 704 881
1395 1511 1440 1372 1339 1328 1396 1348 1120 1171 1161 1154 1055 1182 1240 1229 1168 1172 1185 1147 1019 920 775 669 514 318 207 222 211 147 195 445 317 560 640 728 913 1074 841 918 1001 818 624
1245 1279 1340 1289 1289 1371 1290 1263 1322 1356 1250 1094 1001 1006 959 844 807 728 642 748 807 964 986 899 794 606 454 397 313 280 472 606 537 842 470 667 751 955 1051 943 1080 913 779
979 1172 1138 1044 1117 1163 1140 1137 1145 1103 1026 903 863 775 744 604 432 374 363 394 480 569 666 611 167 0 7 75 241 370 565 489 479 458 581 795 693 688 665 801 816 859 757
800 848 867 857 859 970 977 962 929 873 842 805 665 579 535 333 175 31 1 0 19 13 1 0 0 0 0 0 78 379 351 347 271 222 235 414 708 784 671 619 730 533 533
379 657 715 746 872 1013 1011 943 806 646 517 421 339 239 47 0 0 0 0 0 0 0 0 0 0 0 0 0 0 319 51 0 0 0 0 65 415 668 556 287 292 457 587
257 319 483 609 570 679 670 538 365 160 79 35 5 0 0 0 0 0 0 0 0 0 0 0 0 0 0 0 0 0 0 0 0 0 0 0 0 78 357 346 152 82 144
94 139 189 199 247 227 211 78 8 0 0 0 0 0 0 0 0 0 0 0 0 0 0 0 0 0 0 0 0 0 0 0 0 0 0 0 2 6 7 65 62 11 3
18 38 34 32 26 17 12 11 4 0 0 0 0 0 0 0 0 0 0 0 0 0 0 0 0 0 0 0 0 0 0 0 0 0 0 2 12 6 11 23 19 19 34
16 19 28 19 0 0 0 0 0 0 0 0 0 0 0 0 0 0 0 0 0 0 0 0 0 0 0 0 0 0 0 0 0 0 0 12 7 11 14 12 17 14 4
64 10 0 0 0 0 0 0 0 0 0 0 0 0 0 0 0 0 0 0 0 0 0 0 0 0 0 0 0 0 0 0 0 0 0 3 8 14 30 19 24 17 7
1 0 0 0 0 0 0 0 0 0 0 0 0 0 0 0 0 0 0 0 0 0 0 0 0 0 0 0 0 0 0 0 0 0 0 0 5 8 31 28 43 24 19
0 0 0 0 0 0 0 0 0 0 0 0 0 0 0 0 0 0 0 0 0 0 0 0 0 0 0 0 0 0 0 0 0 0 0 0 0 3 17 33 34 37 31
0 0 0 0 0 0 0 0 0 0 0 0 0 0 0 0 0 0 0 0 0 0 0 0 0 0 0 0 0 0 0 0 0 0 0 0 0 0 0 6 7 50 33
0 0 0 0 0 0 0 0 0 0 0 0 0 0 0 0 0 0 0 0 0 0 0 0 0 0 0 0 0 0 0 0 0 0 0 0 0 0 0 0 5 35 21
0 0 0 0 0 0 0 0 0 0 0 0 0 0 0 0 0 0 0 0 0 0 0 0 0 0 0 0 0 0 0 0 0 0 0 0 0 0 0 0 4 0 7
0 0 0 0 0 0 0 0 0 0 0 0 0 0 0 0 0 0 0 0 0 0 0 0 0 0 0 0 0 0 0 0 0 0 0 0 0 0 0 0 3 0 0
0 0 0 0 0 0 0 0 0 0 0 0 0 0 0 0 0 0 0 0 0 0 0 0 0 0 0 0 0 0 0 0 0 0 0 0 0 0 0 0 0 0 0
0 0 0 0 0 0 0 0 0 0 0 0 0 0 0 0 0 0 0 0 0 0 0 0 0 0 0 0 0 0 0 0 0 0 0 0 0 0 0 0 0 0 0
0 0 0 0 0 0 0 0 0 0 0 0 0 0 0 0 0 0 0 0 0 0 0 0 0 0 0 0 0 0 0 0 0 0 0 0 0 0 0 0 0 0 0
0 0 0 0 0 0 0 0 0 0 0 0 0 0 0 0 0 0 0 0 0 0 0 0 0 0 0 0 0 0 0 0 0 0 0 0 0 0 0 0 0 0 0
0 0 0 0 0 0 0 0 0 0 0 0 0 0 0 0 0 0 0 0 0 0 0 0 0 0 0 0 0 0 0 0 0 0 0 0 0 0 0 0 0 0 0
0 0 0 0 0 0 0 0 0 0 0 0 0 0 0 0 0 0 0 0 0 0 0 0 0 0 0 0 0 0 0 0 0 0 0 0 0 0 0 0 0 0 0
0 0 0 0 0 0 0 0 0 0 0 0 0 0 0 0 0 0 0 0 0 0 0 0 0 0 0 0 0 0 0 0 0 0 0 0 0 0 0 0 0 0 0
0 0 0 0 0 0 0 0 0 0 0 0 0 0 0 0 0 0 0 0 0 0 0 0 0 0 0 0 0 0 0 0 0 0 0 0 0 0 0 0 0 0 0
CIN
-15 -1 -1 -32 -83 -92 -89 -89 -105 -131 -159 -167 -177 -195 -206 -164 -135 -109 -90 -77 -76 -57 -46 -28 -13 -9 -11 -24 -55 -63 -68 -44 -32 -29 -2 -0 -0 -10 -30 -26 -17 -12 -2
-8 -1 -10 -31 -64 -96 -88 -82 -99 -110 -117 -116 -134 -150 -154 -153 -139 -115 -101 -85 -81 -81 -83 -79 -54 -46 -58 -94 -140 -182 -186 -158 -133 -40 -23 -0 -0 -0 -1 -32 -48 -34 -12
-11 -7 -12 -41 -72 -89 -80 -78 -103 -89 -89 -74 -75 -58 -50 -43 -48 -50 -44 -37 -45 -51 -67 -68 -77 -112 -139 -155 -170 -191 -157 -90 -100 -48 -31 -18 -4 -0 -7 -5 -4 -15 -37
-20 -21 -22 -40 -53 -59 -76 -81 -69 -56 -65 -79 -85 -84 -84 -96 -96 -98 -109 -88 -64 -38 -33 -42 -39 -45 -65 -90 -136 -146 -108 -94 -85 -34 -59 -27 -4 -0 -0 -2 -0 -2 -4
-32 -11 -18 -39 -46 -53 -56 -65 -70 -80 -85 -105 -111 -109 -106 -133 -168 -172 -165 -146 -130 -98 -68 -74 -205 -0 -67 -197 -154 -109 -72 -100 -104 -93 -57 -12 -8 -4 -8 -5 -2 -1 -4
-47 -43 -51 -63 -78 -78 -81 -61 -106 -87 -86 -89 -132 -138 -141 -171 -236 -356 -9 -10 -372 -390 -7 -0 -0 -0 -0 -0 -215 -99 -99 -100 -133 -138 -108 -52 -7 -2 -4 -1 -0 -6 -4
-122 -57 -58 -58 -62 -59 -63 -55 -63 -96 -116 -143 -172 -196 -319 -0 -0 -0 -0 -0 -0 -0 -0 -0 -0 -0 -0 -0 -0 -90 -122 -0 -0 -0 -0 -123 -16 -0 -0 -14 -11 -3 -0
-134 -116 -83 -66 -71 -46 -107 -117 -132 -209 -250 -289 -170 -0 -0 -0 -0 -0 -0 -0 -0 -0 -0 -0 -0 -0 -0 -0 -0 -0 -0 -0 -0 -0 -0 -0 -4 -67 -4 -5 -21 -50 -24
-211 -214 -186 -178 -163 -171 -187 -230 -336 -12 -0 -0 -0 -0 -0 -0 -0 -0 -0 -0 -0 -0 -0 -0 -0 -0 -0 -0 -0 -0 -0 -0 -0 -0 -0 -0 -0 -0 -7 -53 -44 -14 -11
-254 -253 -257 -259 -274 -271 -245 -216 -255 -0 -0 -0 -0 -0 -0 -0 -0 -0 -0 -0 -0 -0 -0 -0 -0 -0 -0 -0 -0 -0 -0 -0 -0 -0 -0 -2 -1 -2 -0 -0 -0 -0 -17
-223 -229 -233 -230 -0 -0 -0 -0 -0 -0 -0 -0 -0 -0 -0 -0 -0 -0 -0 -0 -0 -0 -0 -0 -0 -0 -0 -0 -0 -0 -0 -0 -0 -0 -0 -2 -1 -1 -1 -0 -0 -0 -0
-152 -205 -2 -0 -0 -0 -0 -0 -0 -0 -0 -0 -0 -0 -0 -0 -0 -0 -0 -0 -0 -0 -0 -0 -0 -0 -0 -0 -0 -0 -0 -0 -0 -0 -0 -2 -0 -1 -0 -3 -0 -0 -1
-105 -9 -0 -0 -0 -0 -0 -0 -0 -0 -0 -0 -0 -0 -0 -0 -0 -0 -0 -0 -0 -0 -0 -0 -0 -0 -0 -0 -0 -0 -0 -0 -0 -0 -0 -0 -1 -0 -1 -1 -0 -0 -0
-0 -0 -0 -0 -0 -0 -0 -0 -0 -0 -0 -0 -0 -0 -0 -0 -0 -0 -0 -0 -0 -0 -0 -0 -0 -0 -0 -0 -0 -0 -0 -0 -0 -0 -0 -0 -0 -1 -1 -1 -0 -1 -0
-0 -0 -0 -0 -0 -0 -0 -0 -0 -0 -0 -0 -0 -0 -0 -0 -0 -0 -0 -0 -0 -0 -0 -0 -0 -0 -0 -0 -0 -0 -0 -0 -0 -0 -0 -0 -0 -0 -0 -1 -1 -0 -0
-0 -0 -0 -0 -0 -0 -0 -0 -0 -0 -0 -0 -0 -0 -0 -0 -0 -0 -0 -0 -0 -0 -0 -0 -0 -0 -0 -0 -0 -0 -0 -0 -0 -0 -0 -0 -0 -0 -0 -0 -0 -0 -1
-0 -0 -0 -0 -0 -0 -0 -0 -0 -0 -0 -0 -0 -0 -0 -0 -0 -0 -0 -0 -0 -0 -0 -0 -0 -0 -0 -0 -0 -0 -0 -0 -0 -0 -0 -0 -0 -0 -0 -0 -0 -0 -3
-0 -0 -0 -0 -0 -0 -0 -0 -0 -0 -0 -0 -0 -0 -0 -0 -0 -0 -0 -0 -0 -0 -0 -0 -0 -0 -0 -0 -0 -0 -0 -0 -0 -0 -0 -0 -0 -0 -0 -0 -0 -0 -0
-0 -0 -0 -0 -0 -0 -0 -0 -0 -0 -0 -0 -0 -0 -0 -0 -0 -0 -0 -0 -0 -0 -0 -0 -0 -0 -0 -0 -0 -0 -0 -0 -0 -0 -0 -0 -0 -0 -0 -0 -0 -0 -0
-0 -0 -0 -0 -0 -0 -0 -0 -0 -0 -0 -0 -0 -0 -0 -0 -0 -0 -0 -0 -0 -0 -0 -0 -0 -0 -0 -0 -0 -0 -0 -0 -0 -0 -0 -0 -0 -0 -0 -0 -0 -0 -0
-0 -0 -0 -0 -0 -0 -0 -0 -0 -0 -0 -0 -0 -0 -0 -0 -0 -0 -0 -0 -0 -0 -0 -0 -0 -0 -0 -0 -0 -0 -0 -0 -0 -0 -0 -0 -0 -0 -0 -0 -0 -0 -0
-0 -0 -0 -0 -0 -0 -0 -0 -0 -0 -0 -0 -0 -0 -0 -0 -0 -0 -0 -0 -0 -0 -0 -0 -0 -0 -0 -0 -0 -0 -0 -0 -0 -0 -0 -0 -0 -0 -0 -0 -0 -0 -0
-0 -0 -0 -0 -0 -0 -0 -0 -0 -0 -0 -0 -0 -0 -0 -0 -0 -0 -0 -0 -0 -0 -0 -0 -0 -0 -0 -0 -0 -0 -0 -0 -0 -0 -0 -0 -0 -0 -0 -0 -0 -0 -0
-0 -0 -0 -0 -0 -0 -0 -0 -0 -0 -0 -0 -0 -0 -0 -0 -0 -0 -0 -0 -0 -0 -0 -0 -0 -0 -0 -0 -0 -0 -0 -0 -0 -0 -0 -0 -0 -0 -0 -0 -0 -0 -0
-0 -0 -0 -0 -0 -0 -0 -0 -0 -0 -0 -0 -0 -0 -0 -0 -0 -0 -0 -0 -0 -0 -0 -0 -0 -0 -0 -0 -0 -0 -0 -0 -0 -0 -0 -0 -0 -0 -0 -0 -0 -0 -0
-0 -0 -0 -0 -0 -0 -0 -0 -0 -0 -0 -0 -0 -0 -0 -0 -0 -0 -0 -0 -0 -0 -0 -0 -0 -0 -0 -0 -0 -0 -0 -0 -0 -0 -0 -0 -0 -0 -0 -0 -0 -0 -0
Wind_Speed
19 20 21 20 21 19 20 21 22 22 22 22 22 22 22 22 22 21 21 21 20 20 19 19 19 19 19 19 19 19 20 20 20 20 21 22 22 22 22 22 22 23 23
19 19 20 19 19 19 18 18 20 20 20 21 21 21 21 21 22 22 22 22 21 21 20 20 20 19 19 19 19 19 21 21 21 20 21 21 20 21 21 21 21 21 21
19 20 20 19 18 18 19 19 18 19 19 18 19 20 21 21 21 21 21 22 21 21 21 21 21 21 21 20 20 20 21 21 20 20 20 21 21 21 20 19 20 19 19
20 21 20 19 18 18 17 18 19 20 19 20 17 18 20 20 20 21 21 21 21 21 21 21 21 21 21 21 21 21 21 21 20 19 20 20 20 20 20 19 19 18 18
20 20 20 18 18 18 18 18 19 18 19 18 18 18 18 19 20 20 21 22 22 21 21 21 22 22 22 22 21 21 21 21 20 19 20 21 21 20 20 20 20 18 18
21 20 19 18 18 17 18 18 18 18 18 18 18 18 18 19 20 20 20 22 23 21 21 22 23 23 23 23 22 21 21 20 20 20 20 21 21 21 21 22 21 19 18
21 21 20 18 17 17 17 18 19 16 17 18 18 19 18 19 19 20 21 23 23 21 21 21 23 24 23 23 22 20 21 21 20 21 21 21 22 22 20 21 21 21 19
21 21 20 19 16 16 17 17 18 17 18 19 19 19 18 18 19 20 22 22 22 22 23 23 23 24 24 24 22 21 22 21 21 21 22 22 22 23 22 21 20 21 20
20 19 19 18 18 18 16 17 18 18 19 19 20 19 18 17 17 19 20 22 22 23 24 24 25 24 24 23 20 21 22 23 22 22 22 23 23 22 21 21 21 21 21
20 19 20 20 19 20 19 19 18 18 19 19 21 19 18 17 17 19 20 22 22 24 24 24 25 24 24 23 21 21 21 22 23 23 23 23 23 23 23 22 21 21 21
18 18 19 19 18 18 18 18 17 18 18 18 20 19 20 18 18 20 21 22 23 24 23 24 24 25 23 22 21 21 21 22 22 23 23 23 23 23 23 23 22 22 22
17 16 16 17 17 17 17 17 17 17 17 17 17 17 19 20 21 22 22 23 24 24 25 25 24 24 24 22 21 21 21 21 22 22 23 23 23 23 23 23 23 23 23
16 14 15 15 16 17 17 17 17 17 17 16 17 18 18 20 21 22 23 24 24 24 24 25 25 24 24 22 21 21 21 22 22 23 23 23 23 23 23 23 23 23 23
14 14 15 15 15 16 17 17 16 16 16 16 16 18 19 20 21 22 24 24 24 24 24 25 25 25 24 23 21 21 21 22 22 23 23 23 24 24 23 23 23 23 22
14 14 14 14 15 16 17 18 17 17 16 15 17 18 19 20 22 23 24 24 25 25 24 24 25 24 24 23 22 20 21 22 23 23 23 24 24 24 24 24 24 23 23
13 13 14 14 16 17 18 19 20 19 18 17 17 18 19 21 22 23 24 25 25 25 24 25 25 24 23 23 22 19 20 21 22 23 22 23 24 24 24 24 23 23 23
12 13 14 15 17 18 18 18 19 19 17 16 18 19 20 21 22 23 24 25 24 25 25 25 25 24 22 21 21 20 20 20 22 22 23 23 24 25 25 24 22 22 23
12 13 13 16 18 18 19 18 18 18 17 16 17 19 21 22 22 23 24 24 24 25 25 26 25 24 22 20 20 20 21 21 22 23 23 24 25 25 25 24 23 23 23
11 13 14 15 17 17 17 17 17 17 17 17 18 19 21 22 22 23 23 24 24 25 26 26 27 24 22 21 20 20 21 21 22 23 24 25 26 26 24 23 23 23 24
11 13 13 14 14 15 15 14 15 16 17 17 18 19 20 21 22 22 23 23 24 25 25 26 26 24 22 21 21 21 21 22 22 24 24 25 26 26 25 24 23 23 24
9 11 12 12 12 12 12 12 13 13 15 17 18 19 20 21 21 21 21 23 24 25 25 24 23 22 22 19 19 20 22 22 23 24 25 26 27 26 26 25 23 24 24
9 10 11 12 13 11 12 11 11 12 13 15 17 18 19 20 20 21 21 22 23 23 24 24 21 19 20 19 15 16 17 18 22 24 25 26 27 26 26 25 25 25 25
10 10 11 11 12 11 10 10 10 12 12 14 16 17 18 19 20 20 21 21 21 22 23 23 22 20 18 21 20 15 18 18 19 20 24 26 27 27 26 25 26 26 27
12 11 10 10 10 10 10 9 8 9 10 12 13 15 16 17 18 19 20 20 21 20 21 22 21 21 18 18 19 21 19 17 19 20 21 25 25 27 26 26 26 27 28
11 12 12 10 10 9 9 9 7 7 9 10 12 13 14 15 16 18 19 19 19 20 19 20 21 21 21 20 19 17 18 19 21 20 23 26 25 26 25 25 26 27 28
10 11 12 11 11 10 10 8 6 5 5 7 9 10 11 13 15 16 17 18 18 18 18 19 20 20 20 20 20 20 19 19 20 21 22 24 26 25 23 24 26 27 28
Wind_Direction
88 95 96 81 74 57 56 51 47 45 43 40 39 38 38 35 31 28 25 21 19 16 12 8 6 7 7 8 8 8 9 8 8 12 13 23 30 31 34 39 38 41 43
86 85 86 79 71 67 50 41 46 38 35 36 33 33 32 31 29 27 24 22 19 19 16 12 6 3 1 0 359 356 1 4 7 16 17 15 18 20 22 28 31 35 36
80 87 90 86 76 69 65 56 40 42 40 27 29 29 29 27 24 21 18 17 15 13 12 11 8 5 3 -0 356 354 354 358 9 24 30 29 26 23 21 17 16 21 30
86 93 91 83 77 68 60 57 55 54 46 42 26 23 29 25 19 16 15 14 10 7 7 6 3 360 358 358 356 355 359 5 10 25 12 11 17 17 22 20 12 21 19
85 86 83 77 70 66 64 59 55 50 45 35 33 22 19 21 19 14 12 10 12 7 3 1 0 359 356 354 356 1 5 9 13 11 4 359 4 6 7 357 355 359 4
82 83 78 73 71 63 60 59 53 43 37 33 34 27 23 20 19 16 10 14 17 5 8 9 6 2 359 359 0 5 7 9 8 3 1 359 357 359 353 349 347 346 351
83 83 76 67 62 59 51 50 42 28 29 31 31 27 24 22 22 19 19 20 15 7 1 2 2 1 0 1 5 13 7 4 2 358 354 350 350 351 356 353 345 344 345
85 82 77 66 43 31 41 41 35 27 28 35 34 31 26 19 18 22 20 15 7 4 5 4 4 2 2 4 16 15 11 4 359 357 353 350 348 349 346 348 351 347 344
81 73 70 59 55 53 35 38 34 28 30 30 32 29 23 21 15 14 11 11 8 5 4 4 6 7 4 6 19 14 15 13 10 2 356 355 357 353 349 342 341 337 338
83 77 77 72 62 68 62 54 39 35 33 25 25 17 26 19 15 13 10 7 4 3 4 5 6 7 9 16 19 19 17 16 13 10 6 2 1 1 357 354 349 345 340
77 73 76 70 62 62 51 51 34 30 30 33 24 21 42 31 19 14 10 9 6 5 6 6 4 7 11 16 19 17 14 12 11 9 8 8 6 3 4 360 355 350 346
81 74 60 71 63 53 41 35 30 37 35 35 29 27 33 36 36 22 12 10 10 12 11 8 6 9 13 18 19 20 20 18 14 10 8 6 5 3 3 359 356 354 350
76 55 57 62 63 56 47 43 35 43 44 39 36 37 25 25 17 17 15 13 12 10 10 10 12 13 16 21 25 26 24 22 19 15 12 11 9 6 5 4 2 1 356
69 65 68 67 66 62 59 56 47 42 36 40 28 31 27 22 17 15 15 13 13 15 17 17 17 17 17 22 27 29 27 25 21 17 12 14 13 10 7 7 2 4 2
69 68 61 62 62 68 65 61 50 48 41 37 31 25 28 17 18 16 13 14 13 16 17 15 14 16 19 22 26 34 32 28 23 21 17 19 16 13 8 3 0 3 7
69 65 64 69 80 78 77 73 68 57 52 44 30 22 12 17 19 20 16 15 18 21 22 20 18 20 22 25 29 36 33 26 24 22 19 16 12 9 5 2 1 3 6
76 78 82 85 88 83 77 71 67 61 40 28 30 20 18 21 22 21 20 21 24 24 24 23 19 20 20 25 28 30 29 27 23 21 17 13 9 7 5 4 1 356 353
87 90 80 88 91 81 77 74 65 59 45 24 23 23 23 29 28 27 28 27 26 25 24 21 19 21 26 32 34 31 30 28 24 19 15 10 7 4 1 4 5 360 352
96 96 92 94 92 86 78 72 61 49 42 33 25 23 22 28 31 31 29 27 26 25 23 20 17 26 32 34 35 32 28 26 24 20 13 6 1 359 359 1 0 357 355
101 101 98 99 94 89 76 64 53 48 41 36 30 26 27 30 34 32 26 24 24 22 21 22 24 30 36 40 40 32 25 20 18 14 10 7 3 2 0 358 356 352 351
109 109 111 105 100 91 77 70 54 45 42 34 30 27 28 31 31 31 27 22 18 18 22 27 29 34 33 38 34 26 19 13 9 7 6 3 0 0 1 359 358 355 348
133 128 121 114 111 100 92 72 46 54 31 32 28 25 29 29 29 29 27 22 18 21 22 24 28 31 25 19 24 18 6 3 2 360 360 358 357 357 357 357 355 351 347
153 146 136 126 123 110 96 67 52 28 25 14 19 26 28 29 27 27 24 22 24 25 24 24 25 27 26 18 16 11 1 356 357 353 355 356 355 354 355 355 353 349 344
164 155 146 139 131 121 112 93 84 54 38 23 33 31 30 26 27 25 21 26 27 29 26 25 25 24 25 20 20 19 18 12 359 352 350 349 352 350 351 352 350 347 342
170 167 160 152 144 134 131 121 96 71 34 39 31 31 25 26 25 21 26 28 27 28 25 23 22 20 19 17 15 15 14 11 4 355 346 342 347 348 350 351 350 346 344
177 173 169 164 158 152 148 144 134 109 58 39 29 30 29 22 22 25 26 24 24 24 22 22 20 19 19 17 15 12 10 5 1 355 350 346 343 345 350 351 349 347 343